Location: Acts Church of Fort Worth
(32.6786°N, 97.2668°W)
Time: 21:01:36
(UTC+00:00)

Meteor 2-5 Rocket - Pass Details

Date: 18 January 2026
Orbit: 832 x 910 km, 81.2° (Epoch: 10 February)

Event Time Altitude Azimuth Distance (km) Brightness Sun altitude
Rises 01:56:55 0° 185° (S) 3,364 7.0 -26.8°
Reaches altitude 10° 01:59:18 10° 185° (S) 2,438 6.2 -27.3°
Enters shadow 02:04:02 67° 179° (S) 907 3.7 -28.3°
